Location: Newark
(50.2306°N, 14.0814°E)
Time: 22:46:10
(UTC+00:00)

N. Korean satellite - Pass Details

Date: 14 December 2019
Orbit: 454 x 507 km, 97.2° (Epoch: 21 January)

Event Time Altitude Azimuth Distance (km) Brightness Sun altitude
Rises 17:04:01 0° 206° (SSW) 2,598 10.9 -18.5°
Reaches altitude 10° 17:06:43 10° 228° (SW) 1,714 10.2 -18.9°
Maximum altitude 17:09:08 17° 269° (W) 1,352 9.8 -19.3°
Drops below altitude 10° 17:11:33 10° 310° (NW) 1,710 9.8 -19.7°
Sets 17:14:15 0° 332° (NNW) 2,589 10.5 -20.1°
